• Join FlightAware (Why Join?)
  • Login
  • US Flag 
03:39AM EDT


 

Airport Tracker/Info


-or-


 

Live Flight TrackerFlight Track Log ✈ SKW5631 ✈ 20-Jun-2013 ✈ KSFO - KBUR

Flight Track Log - Related Links

Times and Time Zones

All times are in EDT time to prevent confusion due to time zone crossing. See the SKW5631 flight status page for this flight to view local times or setup timezone preferences in your user account.

Time Position Orientation Groundspeed Altitude Reporting Facility
EDT Latitude Longitude Course Direction KTS MPH feet Rate Location/Type
10:29PM 37.3398 -122.0273 135° Southeast  Level Estimated
10:30PM 37.2464 -121.9119 135° Southeast  Level Estimated
10:31PM 37.1530 -121.7968 136° Southeast  Level Estimated
10:32PM 37.0594 -121.6819 136° Southeast  Level Estimated
10:33PM 36.9658 -121.5674 136° Southeast  Level Estimated
10:34PM 36.8720 -121.4531 136° Southeast  Level Estimated
10:35PM 36.7781 -121.3391 136° Southeast  Level Estimated
10:36PM 36.6841 -121.2254 136° Southeast  Level Estimated
10:37PM 36.5900 -121.1120 136° Southeast  Level Estimated
10:38PM 36.4958 -120.9988 136° Southeast  Level Estimated
10:39PM 36.4015 -120.8859 136° Southeast  Level Estimated
10:40PM 36.3071 -120.7733 136° Southeast  Level Estimated
10:41PM 36.2125 -120.6610 136° Southeast  Level Estimated
10:42PM 36.1179 -120.5489 136° Southeast  Level Estimated
10:43PM 36.0232 -120.4371 136° Southeast  Level Estimated
10:44PM 35.9283 -120.3256 136° Southeast  Level Estimated
10:45PM 35.8334 -120.2143 136° Southeast  Level Estimated
10:46PM 35.7383 -120.1033 137° Southeast  Level Estimated
10:47PM 35.6432 -119.9926 137° Southeast  Level Estimated
10:48PM 35.5479 -119.8821 137° Southeast  Level Estimated
10:49PM 35.4526 -119.7719 137° Southeast  Level Estimated
10:50PM 35.3571 -119.6620 137° Southeast  Level Estimated
10:51PM 35.2616 -119.5523 137° Southeast  Level Estimated
10:52PM 35.1659 -119.4429 137° Southeast  Level Estimated
10:53PM 35.0702 -119.3337 137° Southeast  Level Estimated
10:54PM 34.9744 -119.2248 137° Southeast  Level Estimated
10:55PM 34.8784 -119.1161 137° Southeast  Level Estimated
10:56PM 34.7824 -119.0077 137° Southeast  Level Estimated
10:57PM 34.6863 -118.8996 137° Southeast  Level Estimated
10:58PM 34.5900 -118.7917 137° Southeast  Level Estimated
10:59PM 34.4937 -118.6840 137° Southeast  Level Estimated
11:00PM 34.3973 -118.5766 137° Southeast  Level Estimated
11:01PM 34.3008 -118.4695 137° Southeast  Level Estimated
11:02PM 34.2042 -118.3626 138° Southeast  Level Estimated
11:03PM 34.2007 -118.3587 138° Southeast  Level Estimated
11:04PM 34.2007 -118.3587 140° Southeast  Level Estimated
11:05PM 34.2007 -118.3587 140° Southeast  Level Estimated
11:06PM 34.2007 -118.3587 140° Southeast  Level Estimated
11:07PM 34.2007 -118.3587 140° Southeast  Level Estimated
11:08PM 34.2007 -118.3587 140° Southeast  Level Estimated
11:09PM 34.2007 -118.3587 140° Southeast  Level Estimated
11:10PM 34.2007 -118.3587 140° Southeast  Level Estimated
11:11PM 34.2007 -118.3587 140° Southeast  Level Estimated
11:12PM 34.2007 -118.3587 140° Southeast  Level Estimated
11:13PM 34.2007 -118.3587 140° Southeast  Level Estimated
11:14PM 34.2007 -118.3587 140° Southeast  Level Estimated
11:15PM 34.2007 -118.3587 140° Southeast  Level Estimated
11:16PM 34.2007 -118.3587 140° Southeast  Level Estimated
11:17PM 34.2007 -118.3587 140° Southeast  Level Estimated